Timestamp, Local Timestamp, ID, PM25, PM10, Co2, Temperature, Relative Humidity, Monitor ID, O3
2018-02-06T19:07:40Z,02/06/18 14:07,2198224,0.1024,0.0388,362,24.9,18.1,,0.0
2018-02-06T19:09:13Z,02/06/18 14:09,2198225,0.0918,0.0318,360,24.9,17.8,,0.0
2018-02-06T19:10:16Z,02/06/18 14:10,2198226,0.0883,0.0212,355,25.0,17.7,,0.0
2018-02-06T19:11:19Z,02/06/18 14:11,2198227,0.0989,0.0283,360,25.0,17.7,,0.0
2018-02-20T15:53:09Z,02/20/18 10:53,2198228,0.837,0.1236,420,26.1,56.3,,0.0
2018-02-20T16:08:22Z,02/20/18 11:08,2198229,0.7593,0.0812,425,26.2,56.1,,0.0
2018-02-20T16:09:25Z,02/20/18 11:09,2198230,0.8122,0.0883,437,26.4,56.0,,0.0
2018-02-20T16:10:28Z,02/20/18 11:10,2198231,0.724,0.0918,455,26.4,55.8,,0.01
2018-02-20T16:11:31Z,02/20/18 11:11,2198232,0.7663,0.1059,465,26.5,55.6,,0.0
2018-02-20T16:12:34Z,02/20/18 11:12,2198233,0.731,0.0848,462,26.6,55.5,,0.0
2018-02-20T16:13:37Z,02/20/18 11:13,2198234,0.6321,0.0777,452,26.7,55.4,,0.01
2018-02-20T16:14:40Z,02/20/18 11:14,2198235,0.7381,0.0777,472,26.8,55.2,,0.01
2018-02-20T16:15:43Z,02/20/18 11:15,2198236,0.7204,0.0989,473,26.9,55.1,,0.01
2018-02-20T16:16:46Z,02/20/18 11:16,2198237,0.7981,0.1448,441,27.0,55.0,,0.0
2018-02-20T16:17:49Z,02/20/18 11:17,2198238,0.8228,0.1095,473,27.1,55.0,,0.0
2018-02-20T16:18:52Z,02/20/18 11:18,2198239,0.8122,0.0848,446,27.1,54.6,,0.0
2018-02-20T16:19:55Z,02/20/18 11:19,2198240,0.7522,0.0953,448,27.3,54.5,,0.0
2018-02-20T16:20:58Z,02/20/18 11:20,2198241,0.8264,0.0953,467,27.4,54.4,,0.0
2018-02-20T16:22:01Z,02/20/18 11:22,2198242,0.7487,0.0777,463,27.5,54.2,,0.0
2018-02-20T16:23:04Z,02/20/18 11:23,2198243,0.7451,0.0777,441,27.6,54.1,,0.0
2018-02-20T16:24:07Z,02/20/18 11:24,2198244,0.7381,0.0706,441,27.7,53.7,,0.0
2018-02-20T16:25:10Z,02/20/18 11:25,2198245,0.6992,0.0636,438,27.8,53.1,,0.0
2018-02-20T16:27:17Z,02/20/18 11:27,2198246,0.6851,0.0459,421,28.0,52.8,,0.0
2018-02-20T16:28:20Z,02/20/18 11:28,2198247,0.5721,0.0459,421,28.1,52.6,,0.0
2018-02-20T16:29:23Z,02/20/18 11:29,2198248,0.6215,0.0388,414,28.1,52.5,,0.0
2018-02-20T16:30:26Z,02/20/18 11:30,2198249,0.618,0.0494,414,28.2,52.3,,0.0
2018-02-20T16:31:29Z,02/20/18 11:31,2198250,0.618,0.0494,429,28.3,52.0,,0.0
2018-02-20T16:32:32Z,02/20/18 11:32,2198251,0.6074,0.0353,422,28.3,51.9,,0.0
2018-02-20T16:33:35Z,02/20/18 11:33,2198252,0.565,0.0318,420,28.4,51.8,,0.0
2018-02-20T16:34:38Z,02/20/18 11:34,2198253,0.5792,0.0353,405,28.5,51.5,,0.0
2018-02-20T16:35:41Z,02/20/18 11:35,2198254,0.5544,0.0247,411,28.5,51.2,,0.0
2018-02-20T16:36:44Z,02/20/18 11:36,2198255,0.5403,0.0424,407,28.5,51.1,,0.0
2018-02-20T16:37:47Z,02/20/18 11:37,2198256,0.5156,0.0353,399,28.6,50.8,,0.0
2018-02-20T16:38:50Z,02/20/18 11:38,2198257,0.5438,0.0388,423,28.7,50.6,,0.0
2018-02-20T16:39:53Z,02/20/18 11:39,2198258,0.4944,0.0353,400,28.7,50.5,,0.0
2018-02-20T16:40:56Z,02/20/18 11:40,2198259,0.5474,0.0283,410,28.7,50.4,,0.0
2018-02-20T16:41:59Z,02/20/18 11:41,2198260,0.5297,0.0318,412,28.8,50.2,,0.0
2018-02-20T16:43:03Z,02/20/18 11:43,2198261,0.4732,0.0283,402,28.8,50.0,,0.0
2018-02-20T16:44:06Z,02/20/18 11:44,2198262,0.4767,0.0353,396,28.9,49.8,,0.0
2018-02-20T16:45:09Z,02/20/18 11:45,2198263,0.4873,0.0212,402,28.9,49.8,,0.0
2018-02-20T16:46:12Z,02/20/18 11:46,2198264,0.4662,0.0318,403,29.0,49.5,,0.0
2018-02-20T16:48:18Z,02/20/18 11:48,2198265,0.4344,0.0177,389,29.1,49.0,,0.0
2018-02-20T16:49:21Z,02/20/18 11:49,2198266,0.4591,0.0353,390,29.1,48.6,,0.0
2018-02-20T16:50:24Z,02/20/18 11:50,2198267,0.4308,0.0247,399,29.2,48.8,,0.0
2018-02-20T16:51:27Z,02/20/18 11:51,2198268,0.4838,0.0283,399,29.2,48.7,,0.0
2018-02-20T16:52:30Z,02/20/18 11:52,2198269,0.4979,0.0177,388,29.2,48.5,,0.0
2018-02-20T16:53:33Z,02/20/18 11:53,2198270,0.4662,0.0177,401,29.2,48.3,,0.0
2018-02-20T16:54:36Z,02/20/18 11:54,2198271,0.452,0.0212,390,29.2,48.2,,0.0
2018-02-20T16:55:39Z,02/20/18 11:55,2198272,0.4979,0.0177,407,29.2,48.0,,0.0
2018-02-20T16:56:42Z,02/20/18 11:56,2198273,0.4414,0.0106,390,29.2,47.9,,0.0
2018-02-20T16:57:45Z,02/20/18 11:57,2198274,0.4097,0.0177,372,29.3,47.7,,0.0
2018-02-20T16:58:48Z,02/20/18 11:58,2198275,0.4238,0.0318,407,29.3,47.5,,0.0
2018-02-20T16:59:52Z,02/20/18 11:59,2198276,0.4556,0.0247,388,29.4,47.5,,0.0
2018-02-20T17:00:55Z,02/20/18 12:00,2198277,0.4662,0.0141,388,29.4,47.4,,0.0
2018-02-20T17:01:58Z,02/20/18 12:01,2198278,0.452,0.0212,390,29.4,47.2,,0.0
2018-02-20T17:03:01Z,02/20/18 12:03,2198279,0.4732,0.0177,392,29.4,47.2,,0.0
2018-02-20T17:04:04Z,02/20/18 12:04,2198280,0.4414,0.0283,375,29.5,47.1,,0.0
2018-02-20T17:05:07Z,02/20/18 12:05,2198281,0.4132,0.0283,369,29.5,47.0,,0.0
2018-02-20T17:06:10Z,02/20/18 12:06,2198282,0.3885,0.0212,391,29.5,46.8,,0.0
2018-02-20T17:08:16Z,02/20/18 12:08,2198283,0.4556,0.0141,373,29.6,46.5,,0.0
2018-02-20T17:09:19Z,02/20/18 12:09,2198284,0.4273,0.0106,379,29.6,46.5,,0.0
2018-02-20T17:10:22Z,02/20/18 12:10,2198285,0.4061,0.0177,389,29.6,46.5,,0.0
2018-02-20T17:11:25Z,02/20/18 12:11,2198286,0.4379,0.0141,381,29.6,46.4,,0.0
2018-02-20T17:12:28Z,02/20/18 12:12,2198287,0.4556,0.0247,368,29.6,46.4,,0.0
2018-02-20T17:13:31Z,02/20/18 12:13,2198288,0.4591,0.0177,391,29.6,46.3,,0.0
2018-02-20T17:14:34Z,02/20/18 12:14,2198289,0.4202,0.0106,387,29.6,46.3,,0.0
2018-02-20T17:15:37Z,02/20/18 12:15,2198290,0.4485,0.0177,387,29.6,46.2,,0.0
2018-02-20T17:16:41Z,02/20/18 12:16,2198291,0.4132,0.0106,362,29.6,46.2,,0.0
2018-02-20T17:17:44Z,02/20/18 12:17,2198292,0.4202,0.0141,379,29.6,46.1,,0.0
2018-02-20T17:18:47Z,02/20/18 12:18,2198293,0.4662,0.0177,369,29.6,46.1,,0.0
2018-02-20T17:19:50Z,02/20/18 12:19,2198294,0.4591,0.0177,368,29.6,46.1,,0.0
2018-02-20T17:20:53Z,02/20/18 12:20,2198295,0.452,0.0141,358,29.6,46.1,,0.0
2018-02-20T17:21:56Z,02/20/18 12:21,2198296,0.4308,0.0141,375,29.6,46.1,,0.0
2018-02-20T17:22:59Z,02/20/18 12:22,2198297,0.4697,0.0177,387,29.6,46.1,,0.0
2018-02-20T17:24:02Z,02/20/18 12:24,2198298,0.4414,0.0106,349,29.6,46.1,,0.0
2018-02-20T17:25:05Z,02/20/18 12:25,2198299,0.4591,0.0177,368,29.6,46.0,,0.0
2018-02-20T17:26:08Z,02/20/18 12:26,2198300,0.4202,0.0177,347,29.6,45.9,,0.0
2018-02-20T17:27:11Z,02/20/18 12:27,2198301,0.4344,0.0141,366,29.6,45.9,,0.0
2018-02-20T17:29:17Z,02/20/18 12:29,2198302,0.4873,0.0141,321,29.7,45.9,,0.0
2018-02-20T17:30:20Z,02/20/18 12:30,2198303,0.4909,0.0141,351,29.7,45.9,,0.0
2018-02-20T17:31:23Z,02/20/18 12:31,2198304,0.4414,0.0141,351,29.6,45.9,,0.0
2018-02-20T17:32:26Z,02/20/18 12:32,2198305,0.4838,0.0141,356,29.6,45.8,,0.0
2018-02-20T17:33:30Z,02/20/18 12:33,2198306,0.4626,0.0106,349,29.6,45.9,,0.0
2018-02-20T17:34:33Z,02/20/18 12:34,2198307,0.4697,0.0177,347,29.6,45.9,,0.0
2018-02-20T17:35:36Z,02/20/18 12:35,2198308,0.4909,0.0106,334,29.7,45.8,,0.0
2018-02-20T17:36:39Z,02/20/18 12:36,2198309,0.4803,0.0106,334,29.7,45.8,,0.0
2018-02-20T17:37:42Z,02/20/18 12:37,2198310,0.445,0.0141,343,29.7,45.8,,0.0
2018-02-20T17:38:45Z,02/20/18 12:38,2198311,0.4732,0.0106,349,29.7,45.9,,0.0
2018-02-20T17:39:48Z,02/20/18 12:39,2198312,0.4414,0.0141,338,29.6,45.8,,0.0
2018-02-20T17:40:51Z,02/20/18 12:40,2198313,0.4379,0.0212,347,29.6,45.8,,0.0
2018-02-20T17:41:54Z,02/20/18 12:41,2198314,0.4662,0.0106,336,29.6,45.7,,0.0
2018-02-20T17:42:57Z,02/20/18 12:42,2198315,0.4838,0.0106,345,29.6,45.7,,0.0
2018-02-20T17:44:00Z,02/20/18 12:44,2198316,0.4944,0.0106,339,29.6,45.7,,0.0
2018-02-20T17:45:03Z,02/20/18 12:45,2198317,0.4732,0.0106,313,29.6,45.8,,0.0
2018-02-20T17:46:06Z,02/20/18 12:46,2198318,0.4838,0.0106,326,29.6,45.7,,0.0
2018-02-20T17:47:09Z,02/20/18 12:47,2198319,0.505,0.0071,339,29.7,45.7,,0.0
2018-02-20T17:48:12Z,02/20/18 12:48,2198320,0.4767,0.0106,313,29.7,45.6,,0.0
2018-02-20T17:49:15Z,02/20/18 12:49,2198321,0.4909,0.0106,356,29.7,45.6,,0.0
2018-02-20T17:50:19Z,02/20/18 12:50,2198322,0.4344,0.0141,336,29.7,45.6,,0.0
2018-02-20T17:51:22Z,02/20/18 12:51,2198323,0.4979,0.0212,339,29.7,45.6,,0.0
2018-02-20T17:52:25Z,02/20/18 12:52,2198324,0.4591,0.0071,334,29.7,45.6,,0.0
2018-02-20T17:53:28Z,02/20/18 12:53,2198325,0.4591,0.0141,334,29.7,45.6,,0.0
2018-02-20T17:54:31Z,02/20/18 12:54,2198326,0.4944,0.0106,345,29.7,45.5,,0.0
2018-02-20T17:55:34Z,02/20/18 12:55,2198327,0.4626,0.0071,323,29.7,45.6,,0.0
2018-02-20T17:56:37Z,02/20/18 12:56,2198328,0.445,0.0141,332,29.7,45.6,,0.0
2018-02-20T17:57:40Z,02/20/18 12:57,2198329,0.4838,0.0106,332,29.6,45.5,,0.0
2018-02-20T17:58:43Z,02/20/18 12:58,2198330,0.4979,0.0177,347,29.6,45.5,,0.0
2018-02-20T17:59:46Z,02/20/18 12:59,2198331,0.5015,0.0106,330,29.6,45.4,,0.0
2018-02-20T18:00:49Z,02/20/18 13:00,2198332,0.4873,0.0141,332,29.6,45.5,,0.0
2018-02-20T18:01:52Z,02/20/18 13:01,2198333,0.4838,0.0141,326,29.6,45.5,,0.0
2018-02-20T18:02:55Z,02/20/18 13:02,2198334,0.4697,0.0177,321,29.7,45.3,,0.0
2018-02-20T18:03:58Z,02/20/18 13:03,2198335,0.4662,0.0106,315,29.7,45.3,,0.0
2018-02-20T18:05:01Z,02/20/18 13:05,2198336,0.4732,0.0141,317,29.7,45.3,,0.0
2018-02-20T18:06:04Z,02/20/18 13:06,2198337,0.4697,0.0141,326,29.6,45.4,,0.0
2018-02-20T18:07:08Z,02/20/18 13:07,2198338,0.505,0.0212,321,29.6,45.3,,0.0
2018-02-20T18:08:11Z,02/20/18 13:08,2198339,0.4732,0.0106,330,29.6,45.3,,0.0
2018-02-20T18:10:17Z,02/20/18 13:10,2198340,0.5085,0.0106,310,29.6,45.3,,0.0
2018-02-20T18:11:20Z,02/20/18 13:11,2198341,0.5121,0.0141,313,29.6,45.2,,0.0
2018-02-20T18:12:23Z,02/20/18 13:12,2198342,0.5085,0.0106,330,29.6,45.2,,0.0
2018-02-20T18:13:26Z,02/20/18 13:13,2198343,0.4909,0.0106,305,29.6,45.2,,0.0
2018-02-20T18:14:29Z,02/20/18 13:14,2198344,0.4944,0.0106,310,29.6,45.3,,0.0
2018-02-20T18:15:32Z,02/20/18 13:15,2198345,0.4379,0.0177,323,29.6,45.3,,0.0
2018-02-20T18:16:35Z,02/20/18 13:16,2198346,0.4873,0.0212,334,29.6,45.2,,0.0
2018-02-20T18:17:38Z,02/20/18 13:17,2198347,0.4803,0.0141,312,29.6,45.2,,0.0
2018-02-20T18:18:41Z,02/20/18 13:18,2198348,0.505,0.0141,313,29.6,45.3,,0.0
2018-02-20T18:19:44Z,02/20/18 13:19,2198349,0.4873,0.0106,313,29.6,45.2,,0.0
2018-02-20T18:20:47Z,02/20/18 13:20,2198350,0.4944,0.0212,326,29.6,45.2,,0.0
2018-02-20T18:21:50Z,02/20/18 13:21,2198351,0.452,0.0177,312,29.6,45.2,,0.0
2018-02-20T18:22:53Z,02/20/18 13:22,2198352,0.4767,0.0177,303,29.6,45.2,,0.0
2018-02-20T18:23:57Z,02/20/18 13:23,2198353,0.4909,0.0106,315,29.6,45.2,,0.0
2018-02-20T18:25:00Z,02/20/18 13:25,2198354,0.5544,0.0071,310,29.6,45.2,,0.0
2018-02-20T18:26:03Z,02/20/18 13:26,2198355,0.5262,0.0141,347,29.6,45.3,,0.0
2018-02-20T18:27:06Z,02/20/18 13:27,2198356,0.4697,0.0141,336,29.6,45.3,,0.0
2018-02-20T18:28:09Z,02/20/18 13:28,2198357,0.4979,0.0035,328,29.6,45.3,,0.0
2018-02-20T18:29:12Z,02/20/18 13:29,2198358,0.5297,0.0106,313,29.6,45.3,,0.0
2018-02-20T18:31:18Z,02/20/18 13:31,2198359,0.4979,0.0177,338,29.7,45.2,,0.0
2018-02-20T18:32:21Z,02/20/18 13:32,2198360,0.5085,0.0141,321,29.6,45.2,,0.0
2018-02-20T18:33:24Z,02/20/18 13:33,2198361,0.5085,0.0247,313,29.7,45.2,,0.0
2018-02-20T18:34:27Z,02/20/18 13:34,2198362,0.5333,0.0212,326,29.7,45.3,,0.0
2018-02-20T18:35:30Z,02/20/18 13:35,2198363,0.5333,0.0247,319,29.7,45.3,,0.0
2018-02-20T18:36:33Z,02/20/18 13:36,2198364,0.5438,0.0106,345,29.7,45.3,,0.0
2018-02-20T18:37:36Z,02/20/18 13:37,2198365,0.5403,0.0141,306,29.7,45.3,,0.0
2018-02-20T18:38:39Z,02/20/18 13:38,2198366,0.505,0.0106,317,29.6,45.2,,0.0
2018-02-20T18:39:42Z,02/20/18 13:39,2198367,0.5121,0.0141,343,29.7,45.2,,0.0
2018-02-20T18:40:46Z,02/20/18 13:40,2198368,0.505,0.0106,332,29.7,45.3,,0.0
2018-02-20T18:41:49Z,02/20/18 13:41,2198369,0.5544,0.0141,301,29.7,45.3,,0.0
2018-02-20T18:42:52Z,02/20/18 13:42,2198370,0.5297,0.0141,313,29.7,45.2,,0.0
2018-02-20T18:43:55Z,02/20/18 13:43,2198371,0.505,0.0106,321,29.7,45.2,,0.0
2018-02-20T18:44:58Z,02/20/18 13:44,2198372,0.5509,0.0141,324,29.7,45.2,,0.0
2018-02-20T18:46:01Z,02/20/18 13:46,2198373,0.4591,0.0106,309,29.7,45.2,,0.0
2018-02-20T18:47:04Z,02/20/18 13:47,2198374,0.5544,0.0141,320,29.7,45.2,,0.0
2018-02-20T18:48:07Z,02/20/18 13:48,2198375,0.5333,0.0071,344,29.7,45.2,,0.0
2018-02-20T18:49:10Z,02/20/18 13:49,2198376,0.5438,0.0212,314,29.7,45.2,,0.0
2018-02-20T18:51:16Z,02/20/18 13:51,2198377,0.5015,0.0106,338,29.7,45.2,,0.0
2018-02-20T18:52:19Z,02/20/18 13:52,2198378,0.565,0.0141,336,29.7,45.2,,0.0
2018-02-20T18:53:22Z,02/20/18 13:53,2198379,0.5721,0.0141,323,29.7,45.2,,0.0
2018-02-20T18:54:25Z,02/20/18 13:54,2198380,0.5368,0.0141,314,29.7,45.2,,0.0
2018-02-20T18:55:28Z,02/20/18 13:55,2198381,0.5862,0.0177,311,29.7,45.1,,0.0
2018-02-20T18:56:31Z,02/20/18 13:56,2198382,0.5015,0.0177,314,29.7,45.2,,0.0
2018-02-20T18:57:35Z,02/20/18 13:57,2198383,0.5333,0.0177,314,29.7,45.2,,0.0
2018-02-20T18:58:38Z,02/20/18 13:58,2198384,0.5544,0.0141,333,29.7,45.2,,0.0
2018-02-20T18:59:41Z,02/20/18 13:59,2198385,0.558,0.0106,323,29.7,45.1,,0.0
2018-02-20T19:00:44Z,02/20/18 14:00,2198386,0.558,0.0106,320,29.8,45.2,,0.0
2018-02-20T19:01:47Z,02/20/18 14:01,2198387,0.5686,0.0106,318,29.7,45.0,,0.0
2018-02-20T19:02:50Z,02/20/18 14:02,2198388,0.5792,0.0141,325,29.7,45.2,,0.0
2018-02-20T19:03:53Z,02/20/18 14:03,2198389,0.5333,0.0177,314,29.8,45.3,,0.0
2018-02-20T19:04:56Z,02/20/18 14:04,2198390,0.5898,0.0177,336,29.7,45.2,,0.0
2018-02-20T19:05:59Z,02/20/18 14:05,2198391,0.5438,0.0141,320,29.8,45.2,,0.0
2018-02-20T19:07:02Z,02/20/18 14:07,2198392,0.5721,0.0141,311,29.8,45.2,,0.0
2018-02-20T19:08:05Z,02/20/18 14:08,2198393,0.5297,0.0141,311,29.8,45.2,,0.0
2018-02-20T19:09:08Z,02/20/18 14:09,2198394,0.5474,0.0212,334,29.8,45.2,,0.0
2018-02-20T19:10:11Z,02/20/18 14:10,2198395,0.5721,0.0141,323,29.8,45.1,,0.0
2018-02-20T19:12:17Z,02/20/18 14:12,2198396,0.5368,0.0106,333,29.8,45.0,,0.0
2018-02-20T19:13:20Z,02/20/18 14:13,2198397,0.5333,0.0141,325,29.8,45.2,,0.0
2018-02-20T19:14:24Z,02/20/18 14:14,2198398,0.5509,0.0106,329,29.8,45.2,,0.0
2018-02-20T19:15:27Z,02/20/18 14:15,2198399,0.5792,0.0141,334,29.8,45.2,,0.0
2018-02-20T19:16:30Z,02/20/18 14:16,2198400,0.565,0.0141,333,29.8,45.1,,0.0
2018-02-20T19:17:33Z,02/20/18 14:17,2198401,0.5368,0.0212,357,29.8,45.1,,0.0
2018-02-20T19:18:36Z,02/20/18 14:18,2198402,0.5085,0.0141,338,29.8,45.1,,0.0
2018-02-20T19:19:39Z,02/20/18 14:19,2198403,0.5227,0.0141,333,29.8,45.1,,0.0
2018-02-20T19:20:42Z,02/20/18 14:20,2198404,0.5544,0.0141,334,29.8,45.2,,0.0
2018-02-20T19:21:45Z,02/20/18 14:21,2198405,0.5015,0.0141,329,29.8,45.1,,0.0
2018-02-20T19:22:48Z,02/20/18 14:22,2198406,0.5085,0.0106,338,29.8,45.2,,0.0
2018-02-20T19:23:51Z,02/20/18 14:23,2198407,0.5403,0.0106,327,29.8,45.1,,0.0
2018-02-20T19:24:54Z,02/20/18 14:24,2198408,0.5333,0.0141,347,29.8,45.1,,0.0
2018-02-20T19:25:57Z,02/20/18 14:25,2198409,0.5403,0.0106,347,29.8,45.1,,0.0
2018-02-20T19:27:00Z,02/20/18 14:27,2198410,0.5121,0.0212,349,29.9,45.1,,0.0
2018-02-20T19:28:03Z,02/20/18 14:28,2198411,0.5509,0.0106,347,29.9,45.1,,0.0
2018-02-20T19:29:06Z,02/20/18 14:29,2198412,0.5262,0.0177,362,29.9,45.1,,0.0
2018-02-20T19:30:09Z,02/20/18 14:30,2198413,0.5438,0.0141,347,29.9,45.2,,0.0
2018-02-20T19:31:13Z,02/20/18 14:31,2198414,0.4979,0.0141,360,29.9,45.1,,0.0
2018-02-20T19:32:16Z,02/20/18 14:32,2198415,0.5438,0.0177,357,29.9,45.0,,0.0
2018-02-20T19:33:19Z,02/20/18 14:33,2198416,0.505,0.0071,362,29.9,45.0,,0.0
2018-02-20T19:34:22Z,02/20/18 14:34,2198417,0.4979,0.0071,368,29.9,45.0,,0.0
2018-02-20T19:35:25Z,02/20/18 14:35,2198418,0.4979,0.0141,368,29.8,45.1,,0.0
2018-02-20T19:36:28Z,02/20/18 14:36,2198419,0.5085,0.0106,353,29.8,45.1,,0.0
2018-02-20T19:37:31Z,02/20/18 14:37,2198420,0.5085,0.0141,368,29.9,45.1,,0.0
2018-02-20T19:38:34Z,02/20/18 14:38,2198421,0.5121,0.0212,357,29.9,45.0,,0.0
2018-02-20T19:39:37Z,02/20/18 14:39,2198422,0.5262,0.0106,368,29.9,45.1,,0.0
2018-02-20T19:40:40Z,02/20/18 14:40,2198423,0.5368,0.0141,375,29.8,45.1,,0.0
2018-02-20T19:41:43Z,02/20/18 14:41,2198424,0.4909,0.0141,369,29.9,45.1,,0.0
2018-02-20T19:42:46Z,02/20/18 14:42,2198425,0.4909,0.0141,381,29.9,45.1,,0.0
2018-02-20T19:43:49Z,02/20/18 14:43,2198426,0.5368,0.0071,357,29.9,45.1,,0.0
2018-02-20T19:44:52Z,02/20/18 14:44,2198427,0.5156,0.0071,375,29.9,45.1,,0.0
2018-02-20T19:45:55Z,02/20/18 14:45,2198428,0.5403,0.0035,389,29.9,45.1,,0.0
2018-02-20T19:46:58Z,02/20/18 14:46,2198429,0.5368,0.0141,383,29.9,45.1,,0.0
2018-02-20T19:48:01Z,02/20/18 14:48,2198430,0.5156,0.0106,383,29.9,45.1,,0.0
2018-02-20T19:49:05Z,02/20/18 14:49,2198431,0.4979,0.0177,381,29.9,45.1,,0.0
2018-02-20T19:50:08Z,02/20/18 14:50,2198432,0.4944,0.0106,362,29.9,45.1,,0.0
2018-02-20T19:51:11Z,02/20/18 14:51,2198433,0.5403,0.0106,385,29.9,45.0,,0.0
2018-02-20T19:53:17Z,02/20/18 14:53,2198434,0.5333,0.0177,392,29.9,45.1,,0.0
2018-02-20T19:54:20Z,02/20/18 14:54,2198435,0.5368,0.0141,378,29.9,45.0,,0.0
2018-02-20T19:55:23Z,02/20/18 14:55,2198436,0.5156,0.0141,411,29.9,44.9,,0.0
2018-02-20T19:56:26Z,02/20/18 14:56,2198437,0.4979,0.0106,401,29.9,44.9,,0.0
2018-02-20T19:57:29Z,02/20/18 14:57,2198438,0.4979,0.0177,403,29.9,44.9,,0.0
2018-02-20T19:58:32Z,02/20/18 14:58,2198439,0.5121,0.0212,409,29.9,44.9,,0.0
2018-02-20T19:59:35Z,02/20/18 14:59,2198440,0.5686,0.0106,397,29.9,44.9,,0.0
2018-02-20T20:00:38Z,02/20/18 15:00,2198441,0.4697,0.0106,411,29.9,44.8,,0.0
2018-02-20T20:01:41Z,02/20/18 15:01,2198442,0.5121,0.0106,417,29.9,44.8,,0.0
2018-02-20T20:02:44Z,02/20/18 15:02,2198443,0.4979,0.0106,397,29.9,44.7,,0.0
2018-02-20T20:03:47Z,02/20/18 15:03,2198444,0.4979,0.0106,411,29.9,44.9,,0.0
2018-02-20T20:04:50Z,02/20/18 15:04,2198445,0.452,0.0106,417,29.9,44.7,,0.0
2018-02-20T20:05:54Z,02/20/18 15:05,2198446,0.5015,0.0106,405,29.9,44.7,,0.0
2018-02-20T20:06:57Z,02/20/18 15:06,2198447,0.4697,0.0071,399,29.9,44.7,,0.0
2018-02-20T20:08:00Z,02/20/18 15:08,2198448,0.4767,0.0071,415,29.9,44.6,,0.0
2018-02-20T20:09:03Z,02/20/18 15:09,2198449,0.4767,0.0035,407,29.9,44.6,,0.0
2018-02-20T20:10:06Z,02/20/18 15:10,2198450,0.5333,0.0141,415,30.0,44.5,,0.0
2018-02-20T20:11:09Z,02/20/18 15:11,2198451,0.4838,0.0141,428,30.0,44.5,,0.0
2018-02-20T20:12:12Z,02/20/18 15:12,2198452,0.4485,0.0071,415,30.0,44.4,,0.0
2018-02-20T20:14:18Z,02/20/18 15:14,2198453,0.4909,0.0141,411,30.0,44.3,,0.0
2018-02-20T20:15:21Z,02/20/18 15:15,2198454,0.5015,0.0177,417,30.0,44.3,,0.0
2018-02-20T20:16:24Z,02/20/18 15:16,2198455,0.4556,0.0177,417,30.0,44.3,,0.0
2018-02-20T20:17:27Z,02/20/18 15:17,2198456,0.4944,0.0035,400,30.0,44.3,,0.0
2018-02-20T20:18:30Z,02/20/18 15:18,2198457,0.5262,0.0106,423,30.0,44.2,,0.0
2018-02-20T20:19:33Z,02/20/18 15:19,2198458,0.505,0.0141,411,30.0,44.2,,0.0
2018-02-20T20:20:36Z,02/20/18 15:20,2198459,0.4591,0.0177,421,30.1,44.2,,0.0
2018-02-20T20:21:39Z,02/20/18 15:21,2198460,0.4379,0.0106,417,30.1,44.0,,0.0
2018-02-20T20:22:43Z,02/20/18 15:22,2198461,0.4485,0.0106,425,30.1,44.1,,0.0
2018-02-20T20:23:46Z,02/20/18 15:23,2198462,0.4838,0.0141,419,30.1,44.0,,0.0
2018-02-20T20:24:49Z,02/20/18 15:24,2198463,0.4662,0.0071,404,30.1,44.0,,0.0
2018-02-20T20:25:52Z,02/20/18 15:25,2198464,0.4944,0.0106,425,30.1,44.0,,0.0
2018-02-20T20:26:55Z,02/20/18 15:26,2198465,0.4838,0.0106,417,30.1,44.0,,0.0
2018-02-20T20:27:58Z,02/20/18 15:27,2198466,0.4767,0.0071,392,30.1,44.0,,0.0
2018-02-20T20:29:01Z,02/20/18 15:29,2198467,0.4556,0.0106,433,30.1,44.1,,0.0
2018-02-20T20:30:04Z,02/20/18 15:30,2198468,0.4662,0.0177,411,30.1,44.1,,0.0
2018-02-20T20:31:07Z,02/20/18 15:31,2198469,0.5438,0.0071,415,30.1,44.0,,0.0
2018-02-20T20:32:10Z,02/20/18 15:32,2198470,0.4803,0.0071,433,30.1,44.1,,0.0
2018-02-20T20:34:16Z,02/20/18 15:34,2198471,0.4979,0.0141,419,30.1,44.1,,0.0
2018-02-20T20:35:19Z,02/20/18 15:35,2198472,0.4485,0.0071,439,30.1,44.2,,0.0
2018-02-20T20:36:22Z,02/20/18 15:36,2198473,0.4767,0.0212,439,30.1,44.3,,0.0
2018-02-20T20:37:25Z,02/20/18 15:37,2198474,0.4344,0.0106,437,30.2,44.5,,0.0
2018-02-20T20:38:28Z,02/20/18 15:38,2198475,0.4662,0.0141,437,30.2,44.6,,0.0
2018-02-20T20:39:32Z,02/20/18 15:39,2198476,0.4979,0.0141,447,30.2,44.6,,0.0
2018-02-20T20:40:35Z,02/20/18 15:40,2198477,0.5015,0.0106,452,30.2,44.8,,0.0
2018-02-20T20:41:38Z,02/20/18 15:41,2198478,0.5015,0.0106,456,30.2,44.8,,0.0
2018-02-20T20:42:41Z,02/20/18 15:42,2198479,0.4662,0.0141,464,30.2,44.8,,0.0
2018-02-20T20:43:44Z,02/20/18 15:43,2198480,0.5085,0.0106,452,30.2,44.8,,0.0
2018-02-20T20:44:47Z,02/20/18 15:44,2198481,0.5085,0.0071,475,30.2,45.1,,0.0
2018-02-20T20:45:50Z,02/20/18 15:45,2198482,0.4838,0.0141,466,30.2,45.1,,0.0
2018-02-20T20:46:53Z,02/20/18 15:46,2198483,0.4732,0.0141,464,30.2,45.3,,0.0
2018-02-20T20:47:56Z,02/20/18 15:47,2198484,0.5227,0.0106,483,30.2,45.3,,0.0
2018-02-20T20:48:59Z,02/20/18 15:48,2198485,0.505,0.0177,483,30.2,45.4,,0.0
2018-02-20T20:50:02Z,02/20/18 15:50,2198486,0.5615,0.0318,475,30.2,45.4,,0.0
2018-02-20T20:51:05Z,02/20/18 15:51,2198487,0.6498,0.0742,479,30.3,45.5,,0.0
2018-02-20T20:52:08Z,02/20/18 15:52,2198488,0.8899,0.0883,479,30.3,45.7,,0.0
2018-02-20T20:53:11Z,02/20/18 15:53,2198489,0.8829,0.0953,496,30.3,45.7,,0.0
2018-02-20T20:55:17Z,02/20/18 15:55,2198490,0.8476,0.0706,493,30.3,45.4,,0.0
2018-02-20T20:56:21Z,02/20/18 15:56,2198491,0.8935,0.0636,485,30.3,45.4,,0.0
2018-02-20T20:57:24Z,02/20/18 15:57,2198492,0.95,0.0777,496,30.4,45.4,,0.0
2018-02-20T20:58:27Z,02/20/18 15:58,2198493,1.0912,0.0953,500,30.4,45.4,,0.0
2018-02-20T20:59:30Z,02/20/18 15:59,2198494,1.1795,0.1059,506,30.4,45.4,,0.01
2018-02-20T21:00:33Z,02/20/18 16:00,2198495,1.2607,0.1448,485,30.4,45.6,,0.01
2018-02-20T21:01:36Z,02/20/18 16:01,2198496,1.1936,0.1095,493,30.4,45.5,,0.01
2018-02-20T21:02:39Z,02/20/18 16:02,2198497,1.3737,0.1307,481,30.4,45.6,,0.01
2018-02-20T21:03:42Z,02/20/18 16:03,2198498,1.5574,0.1766,498,30.4,45.8,,0.01
2018-02-20T21:04:45Z,02/20/18 16:04,2198499,1.5538,0.1695,506,30.4,45.8,,0.01
2018-02-20T21:05:48Z,02/20/18 16:05,2198500,1.7445,0.1942,491,30.4,45.9,,0.01
2018-02-20T21:06:51Z,02/20/18 16:06,2198501,1.734,0.1519,508,30.4,45.9,,0.01
2018-02-20T21:07:54Z,02/20/18 16:07,2198502,2.1895,0.2613,492,30.4,46.0,,0.01
2018-02-20T21:08:57Z,02/20/18 16:08,2198503,1.9706,0.2119,488,30.5,46.0,,0.01
2018-02-20T21:10:00Z,02/20/18 16:10,2198504,2.1189,0.1907,519,30.5,46.0,,0.01
2018-02-20T21:11:03Z,02/20/18 16:11,2198505,2.1189,0.2543,528,30.5,46.3,,0.02
2018-02-20T21:12:06Z,02/20/18 16:12,2198506,2.2248,0.2401,528,30.5,46.3,,0.02
2018-02-20T21:13:10Z,02/20/18 16:13,2198507,2.3449,0.2719,530,30.5,46.4,,0.02
2018-02-20T21:14:13Z,02/20/18 16:14,2198508,2.3837,0.2543,526,30.5,46.5,,0.02
2018-02-20T21:15:16Z,02/20/18 16:15,2198509,2.359,0.2755,517,30.5,46.7,,0.02
2018-02-20T21:16:19Z,02/20/18 16:16,2198510,2.5497,0.3072,538,30.5,46.8,,0.02
2018-02-20T21:17:22Z,02/20/18 16:17,2198511,2.4932,0.2966,532,30.6,47.0,,0.02
2018-02-20T21:18:25Z,02/20/18 16:18,2198512,2.4367,0.2613,558,30.6,46.9,,0.02
2018-02-20T21:19:28Z,02/20/18 16:19,2198513,2.4226,0.226,520,30.6,47.0,,0.02
2018-02-20T21:20:31Z,02/20/18 16:20,2198514,2.4226,0.2437,547,30.6,47.0,,0.02
2018-02-20T21:21:34Z,02/20/18 16:21,2198515,2.5603,0.2578,536,30.6,47.1,,0.02
2018-02-20T21:22:37Z,02/20/18 16:22,2198516,2.5356,0.2507,528,30.6,47.2,,0.02
2018-02-20T21:23:40Z,02/20/18 16:23,2198517,2.7122,0.2966,539,30.6,47.2,,0.02
2018-02-20T21:24:43Z,02/20/18 16:24,2198518,2.7793,0.3037,548,30.6,47.3,,0.02
2018-02-20T21:25:46Z,02/20/18 16:25,2198519,2.8464,0.3214,539,30.6,47.4,,0.03
2018-02-20T21:26:49Z,02/20/18 16:26,2198520,2.917,0.3284,544,30.6,47.6,,0.03
2018-02-20T21:27:52Z,02/20/18 16:27,2198521,2.8817,0.2896,535,30.6,47.6,,0.03
2018-02-20T21:28:55Z,02/20/18 16:28,2198522,2.9029,0.3002,546,30.6,47.5,,0.03
2018-02-20T21:29:59Z,02/20/18 16:29,2198523,2.9382,0.2649,562,30.6,47.5,,0.03
2018-02-20T21:31:02Z,02/20/18 16:31,2198524,2.8711,0.3037,562,30.6,47.5,,0.03
2018-02-20T21:32:05Z,02/20/18 16:32,2198525,2.7334,0.2931,531,30.6,47.5,,0.03
2018-02-20T21:33:08Z,02/20/18 16:33,2198526,2.9876,0.2649,565,30.6,47.5,,0.03
2018-02-20T21:34:11Z,02/20/18 16:34,2198527,2.8428,0.2649,541,30.5,47.7,,0.03
2018-02-20T21:36:17Z,02/20/18 16:36,2198528,3.2242,0.3214,564,30.4,47.8,,0.03
2018-02-20T21:37:20Z,02/20/18 16:37,2198529,3.249,0.3496,536,30.4,47.8,,0.03